SCP
0 0 0 0 0 0 0 0 0 0 0 0 0 0 0 0 0 0 0 0 0 0 0 0 0 0 0 0 0 0 0 0 0 0 0 0 0 0 0 0 0 0 0
0 0 0 0 0 0 0 0 0 0 0 0 0 0 0 0 0 0 0 0 0 0 0 0 0 0 0 0 0 0 0 0 0 0 0 0 0 0 0 0 0 0 0
0 0 0 0 0 0 0 0 0 0 0 0 0 0 0 0 0 0 0 0 0 0 0 0 0 0 0 0 0 0 0 0 0 0 0 0 0 0 0 0 0 0 0
0 0 0 0 0 0 0 0 0 0 0 0 0 0 0 0 0 0 0 0 0 0 0 0 0 0 0 0 0 0 0 0 0 0 0 0 0 0 0 0 0 0 0
0 0 0 0 0 0 0 0 0 0 0 0 0 0 0 0 0 0 0 0 0 0 0 0 0 0 0 0 0 0 0 0 0 0 0 0 0 0 0 0 0 0 0
0 0 0 0 0 0 0 0 0 0 0 0 0 0 0 0 0 0 0 0 0 0 0 0 0 0 0 0 0 0 0 0 0 0 0 0 0 0 0 0 0 0 0
0 0 0 0 0 0 0 0 0 0 0 0 0 0 0 0 0 0 0 0 0 0 0 0 0 0 0 0 0 0 0 0 0 0 0 0 0 0 0 0 0 0 0
0 0 0 0 0 0 0 0 0 0 0 0 0 0 0 0 0 0 0 0 0 0 0 0 0 0 0 0 0 0 0 0 0 0 0 0 0 0 0 0 0 0 0
0 0 0 0 0 0 0 0 0 0 0 0 0 0 0 0 0 0 0 0 0 0 0 0 0 0 0 0 0 0 0 0 0 0 0 0 0 0 0 0 0 0 0
0 0 0 0 0 0 0 0 0 0 0 0 0 0 0 0 0 0 0 0 0 0 0 0 0 0 0 0 0 0 0 0 0 0 0 0 0 0 0 0 0 0 0
0 0 0 0 0 0 0 0 0 0 0 0 0 0 0 0 0 0 0 0 0 0 0 0 0 0 0 0 0 0 0 0 0 0 0 0 0 0 0 0 0 0 0
0 0 0 0 0 0 0 0 0 0 0 0 0 0 0 0 0 0 0 0 0 0 0 0 0 0 0 0 0 0 0 0 0 0 0 0 0 0 0 0 0 0 0
0 0 0 0 0 0 0 0 0 0 0 0 0 0 0 0 0 0 0 0 0 0 0 0 0 0 0 0 0 0 0 0 0 0 0 0 0 0 0 0 0 0 0
0 0 0 0 0 0 0 0 0 0 0 0 0 0 0 0 0 0 0 0 0 0 0 0 0 0 0 0 0 0 0 0 0 0 0 0 0 0 0 0 0 0 0
0 0 0 0 0 0 0 0 0 0 0 0 0 0 0 0 0 0 0 0 0 0 0 0 0 0 0 0 0 0 0 0 0 0 0 0 0 0 0 0 0 0 0
0 0 0 0 0 0 0 0 0 0 0 0 0 0 0 0 0 0 0 0 0 0 0 0 0 0 0 0 0 0 0 0 0 0 0 0 0 0 0 0 0 0 0
0 0 0 0 0 0 0 0 0 0 0 0 0 0 0 0 0 0 0 0 0 0 0 0 0 0 0 0 0 0 0 0 0 0 0 0 0 0 0 0 0 0 0
0 0 0 0 0 0 0 0 0 0 0 0 0 0 0 0 0 0 0 0 0 0 0 0 0 0 0 0 0 0 0 0 0 0 0 0 0 0 0 0 0 0 0
0 0 0 0 0 0 0 0 0 0 0 0 0 0 0 0 0 0 0 0 0 0 0 0 0 0 0 0 0 0 0 0 0 0 0 0 0 0 0 0 0 0 0
0 0 0 0 0 0 0 0 0 0 0 0 0 0 0 0 0 0 0 0 0 0 0 0 0 0 0 0 0 0 0 0 0 0 0 0 0 0 0 0 0 0 0
0 0 0 0 0 0 0 0 0 0 0 0 0 0 0 0 0 0 0 0 0 0 0 0 0 0 0 0 0 0 0 0 0 0 0 0 0 0 0 0 0 0 0
0 0 0 0 0 0 0 0 0 0 0 0 0 0 0 0 0 0 0 0 0 0 0 0 0 0 0 0 0 0 0 0 0 0 0 0 0 0 0 0 0 0 0
0 0 0 0 0 0 0 0 0 0 0 0 0 0 0 0 0 0 0 0 0 0 0 0 0 0 0 0 0 0 0 0 0 0 0 0 0 0 0 0 0 0 0
0 0 0 0 0 0 0 0 0 0 0 0 0 0 0 0 0 0 0 0 0 0 0 0 0 0 0 0 0 0 0 0 0 0 0 0 0 0 0 0 0 0 0
0 0 0 0 0 0 0 0 0 0 0 0 0 0 0 0 0 0 0 0 0 0 0 0 0 0 0 0 0 0 0 0 0 0 0 0 0 0 0 0 0 0 0
0 0 0 0 0 0 0 0 0 0 0 0 0 0 0 0 0 0 0 0 0 0 0 0 0 0 0 0 0 0 0 0 0 0 0 0 0 0 0 0 0 0 0
Wind_Speed
9 11 12 13 13 13 13 13 12 12 12 12 12 12 12 11 11 12 12 13 13 13 14 14 14 14 15 15 14 14 15 15 15 14 14 15 14 14 14 12 11 12 14
12 13 12 12 13 13 13 13 12 12 11 12 12 11 11 11 11 12 12 12 12 13 14 14 13 13 14 13 13 13 14 13 13 12 11 13 14 14 14 13 12 10 13
13 13 13 11 13 13 13 12 12 11 11 11 11 11 11 11 11 12 12 11 12 12 13 12 12 12 12 12 12 12 12 12 12 9 6 9 11 13 13 13 13 13 12
13 12 13 12 13 13 13 12 12 11 11 11 11 11 11 11 11 11 11 11 11 11 11 11 11 11 11 11 11 11 11 11 9 4 6 8 9 11 11 11 12 11 11
12 11 12 11 13 13 12 12 11 11 11 11 10 10 10 10 10 10 10 10 10 10 10 10 10 10 10 10 10 10 10 9 5 4 7 7 8 10 10 10 10 10 10
12 11 12 11 12 13 12 11 11 11 11 11 10 10 10 10 9 9 9 9 9 9 9 9 9 9 8 8 9 8 8 6 2 5 6 6 6 8 9 9 8 8 8
11 11 12 10 11 11 11 11 11 11 11 11 10 10 10 9 9 9 9 9 8 8 8 8 8 7 7 7 7 7 7 3 3 4 4 4 6 6 7 7 6 6 6
11 10 11 10 9 9 10 10 9 10 10 10 10 10 9 9 9 9 8 8 8 7 7 7 6 6 6 6 5 6 5 1 2 3 3 3 5 4 5 5 4 4 5
10 10 10 11 10 9 8 8 8 8 8 8 9 8 8 8 8 7 7 7 8 7 6 6 5 5 5 5 4 5 4 0 1 2 1 2 3 1 3 3 3 3 3
9 9 9 10 10 10 10 8 7 7 8 8 8 7 7 7 7 6 7 7 7 7 6 6 5 5 4 4 4 4 3 3 1 1 1 1 1 1 1 2 2 2 1
8 9 9 9 9 9 9 9 8 7 7 8 8 8 7 7 7 7 7 6 6 6 6 6 6 5 4 4 3 3 4 3 2 2 2 1 3 3 3 2 3 3 3
11 10 9 10 10 9 7 7 7 7 8 8 7 9 7 6 5 5 6 5 5 5 6 6 5 5 5 4 4 5 3 3 4 3 2 2 5 6 5 5 5 5 5
11 11 10 10 10 9 7 6 5 5 6 7 9 9 7 6 5 5 5 6 6 7 6 6 6 5 4 3 3 4 4 4 3 3 3 4 7 8 8 8 7 8 8
11 12 11 11 10 10 8 7 7 6 6 6 8 9 7 5 6 6 5 5 5 5 5 5 4 5 5 5 5 5 6 5 4 4 4 5 8 10 11 11 10 10 10
12 12 12 12 12 10 9 7 7 7 7 8 7 8 9 7 7 7 6 6 6 5 6 6 6 6 6 7 6 7 7 7 7 7 5 7 10 11 13 13 13 13 12
13 12 11 12 12 11 10 9 8 8 8 8 8 10 11 8 7 7 7 7 7 7 6 6 7 7 6 6 7 8 8 8 8 9 8 7 11 13 15 15 15 15 15
12 12 12 12 12 12 12 11 9 8 8 8 8 10 11 10 9 8 7 7 7 7 8 7 8 7 7 7 9 9 8 9 9 10 10 8 8 11 15 17 18 17 17
11 12 12 9 12 13 12 11 9 9 9 8 8 9 12 12 11 9 8 8 8 7 7 7 7 7 7 7 8 7 8 8 11 11 10 10 9 9 11 16 18 19 19
12 11 12 12 12 12 12 10 10 9 9 9 9 9 11 12 13 10 9 8 9 7 7 7 7 7 7 8 7 8 8 9 10 10 12 13 12 11 10 10 14 17 19
11 11 11 11 12 11 9 9 8 9 9 9 9 10 12 11 13 11 9 10 9 8 8 8 9 8 7 7 7 8 9 10 10 11 12 11 11 13 12 12 10 11 17
10 11 12 12 11 10 8 8 8 9 9 9 10 11 12 12 12 12 9 10 9 9 10 10 9 9 8 6 6 7 9 11 12 11 10 10 11 11 11 12 10 9 8
11 11 11 12 12 12 10 9 8 8 8 9 8 10 12 12 12 11 12 10 10 9 11 11 10 7 7 7 6 5 6 6 7 8 9 9 10 9 10 11 11 11 10
11 11 10 12 12 12 12 9 7 7 6 7 9 9 12 13 13 12 13 11 10 10 9 11 10 11 9 7 8 7 6 6 5 5 7 7 8 8 8 9 11 11 12
10 9 10 11 11 11 11 11 12 10 10 11 9 8 10 12 13 13 13 12 11 10 10 10 11 10 10 8 7 9 9 7 6 6 5 6 8 9 9 8 9 11 12
8 8 8 9 10 10 11 12 13 12 10 8 8 9 9 9 11 12 12 11 11 10 11 11 10 11 9 10 8 6 8 9 10 9 10 9 7 8 9 10 9 9 11
6 6 7 8 8 8 10 11 13 13 12 10 9 8 8 7 8 11 11 11 11 10 11 11 10 12 11 11 10 8 7 7 8 9 11 11 11 9 9 9 9 9 9
Wind_Direction
153 149 143 146 141 137 132 129 126 124 123 122 120 118 116 115 114 111 109 107 106 101 96 93 90 88 85 83 81 79 76 74 73 76 77 77 76 76 74 70 73 75 72
146 149 143 147 145 140 136 133 131 130 129 127 125 123 121 118 117 114 111 108 106 102 98 95 93 91 88 85 83 81 79 77 75 73 79 83 77 77 76 72 69 75 74
146 148 150 148 146 143 141 139 137 136 134 132 130 126 123 121 120 116 113 111 108 105 101 98 97 97 93 88 86 84 83 79 75 71 79 84 81 77 77 76 76 76 76
149 152 153 145 147 146 145 144 143 142 140 137 133 130 127 124 122 120 116 114 112 110 107 104 101 99 97 92 89 87 86 81 74 62 78 76 80 77 77 77 75 75 76
151 154 146 149 150 150 149 149 147 146 145 142 138 137 134 130 126 126 123 120 118 115 111 109 106 103 101 97 93 91 90 85 80 80 77 75 77 79 78 77 78 77 77
154 156 150 155 154 154 154 154 152 151 148 145 142 141 140 136 133 129 129 126 123 121 117 114 110 105 104 101 97 96 95 90 126 82 78 75 78 81 82 82 81 81 81
158 159 156 157 157 157 159 159 158 157 155 152 148 146 144 144 141 138 136 134 132 129 124 120 116 112 111 106 103 102 101 84 73 83 78 77 76 78 86 87 86 86 85
161 161 160 157 159 160 161 163 163 162 160 158 155 154 154 153 153 150 147 146 144 140 134 129 122 119 117 114 110 109 107 103 105 90 86 82 72 81 91 93 92 91 91
165 167 169 170 169 166 165 165 165 165 163 161 159 157 158 159 159 156 154 156 155 153 148 142 136 131 127 122 119 118 113 18 275 95 97 84 58 73 105 109 102 104 105
173 177 176 178 179 179 176 170 170 169 168 164 160 158 158 161 164 160 170 165 166 164 162 158 155 151 143 134 130 130 145 215 240 192 205 80 7 282 164 149 152 152 152
185 188 186 185 186 186 185 175 179 176 175 173 172 165 175 187 184 180 186 171 174 172 173 172 170 157 156 150 146 154 203 238 243 254 250 24 285 263 237 221 218 221 215
194 195 194 193 191 191 188 187 192 192 190 196 194 187 195 198 195 196 169 181 183 181 185 185 179 177 208 203 177 198 232 242 249 245 242 264 268 260 250 245 240 237 233
200 198 199 199 197 195 192 195 196 197 198 202 202 200 200 200 197 203 195 188 198 200 207 193 202 218 224 233 237 235 249 253 254 254 241 237 263 262 255 251 247 243 239
207 206 203 202 202 201 201 200 200 201 202 204 203 205 204 204 207 206 210 208 207 209 215 220 222 227 232 235 241 247 249 252 256 260 254 234 256 260 257 255 254 249 245
214 213 208 206 206 204 204 207 207 207 208 208 206 207 210 211 211 212 213 213 216 217 218 223 229 231 234 237 240 245 249 252 256 257 253 231 245 256 257 256 256 251 251
217 217 213 209 209 208 208 210 211 212 211 213 211 211 212 216 215 215 218 218 220 220 224 229 234 238 240 243 246 247 252 254 252 254 258 245 232 245 253 255 255 254 253
221 219 217 214 212 212 214 215 215 214 213 214 215 215 214 217 219 219 221 221 222 221 223 230 235 239 244 245 249 250 251 253 254 254 255 257 250 236 241 250 252 253 254
225 222 220 214 215 215 216 216 217 217 215 217 217 216 217 218 220 220 223 225 223 220 221 226 231 234 239 244 250 251 250 252 255 255 254 252 253 252 240 239 246 250 252
227 224 221 218 218 218 217 218 219 219 219 219 219 219 218 218 219 220 223 226 222 222 223 225 229 234 243 246 252 257 257 256 257 254 252 252 250 250 252 240 234 242 249
229 226 223 220 221 219 216 218 219 221 222 222 221 221 220 219 218 220 225 226 221 222 224 224 228 231 241 252 258 261 260 258 255 253 254 251 248 247 247 250 243 235 238
229 226 224 222 220 214 210 210 213 219 220 221 223 223 221 221 219 219 222 224 219 222 225 225 226 232 234 234 252 266 262 252 250 249 247 248 246 245 245 245 244 246 239
230 228 227 225 221 215 213 211 215 219 220 222 221 222 222 221 221 220 223 223 220 223 228 227 223 229 232 214 229 261 279 268 239 240 243 244 249 248 244 242 242 241 245
234 231 227 226 224 220 216 214 214 220 225 221 221 221 220 221 221 221 224 225 224 222 228 227 223 227 235 226 221 232 253 268 297 247 236 241 245 246 247 245 242 242 243
239 237 233 230 226 223 215 213 211 213 220 224 222 221 222 220 222 223 225 226 227 226 230 230 226 227 232 236 225 228 241 265 274 287 254 243 246 249 253 250 247 246 244
244 237 234 232 228 223 216 215 215 222 228 232 226 225 225 221 222 224 225 226 228 229 232 233 229 228 229 235 232 225 233 241 243 258 275 275 263 255 254 255 255 253 250
249 240 236 232 231 227 220 217 217 221 225 228 228 226 224 223 222 224 224 226 229 231 234 235 234 232 232 236 238 234 230 234 236 242 257 268 272 271 264 256 256 255 252